Location: Hollin Hills
(38.7573°N, 77.0661°W)
Time: 12:38:53
(UTC+00:00)

ISS - Pass Details

Date: 24 April 2026
Orbit: 414 x 424 km, 51.6° (Epoch: 11 May)

Event Time Altitude Azimuth Distance (km) Brightness Sun altitude
Exits shadow 08:10:06 31° 351° (N) 761 -2.2 -22.9°
Drops below altitude 10° 08:12:39 10° 36° (NE) 1,502 0.1 -22.5°
Sets 08:14:53 0° 46° (NE) 2,370 1.6 -22.2°
